Regional Weather Roundup
Issued by NWS

Home | Current Version | Previous Version | Text Only | Print | Product List | Glossary On
Versions: 1 2 3 4 5 6 7 8 9 10 11 12 13 14 15 16 17 18 19 20 21 22 23 24 25 26 27 28 29 30 31 32 33 34 35 36 37 38 39 40 41 42 43 44 45 46 47 48 49 50
000
ASUS43 KFSD 300110
RWRSD

WEATHER ROUNDUP FOR SOUTH DAKOTA
NATIONAL WEATHER SERVICE SIOUX FALLS SD
700 PM CST THU JAN 29 2015

NOTE: "FAIR" INDICATES FEW OR NO CLOUDS BELOW 12,000 FEET WITH NO
SIGNIFICANT WEATHER AND/OR OBSTRUCTIONS TO VISIBILITY.


SDZ001>005-009-010-012>017-300200-
NORTHWEST AND NORTH CENTRAL SOUTH DAKOTA

CITY           SKY/WX    TMP DP  RH WIND       PRES   REMARKS
BUFFALO          N/A     34  10  37 SE8       30.30S WCI  27
FAITH            N/A     32  13  45 SE9       30.41R WCI  24
MOBRIDGE       CLEAR     27  19  72 NE7       30.44S WCI  19
$$

SDZ012>016-024>037-041>051-057-063-072>074-300200-
SOUTHWEST AND SOUTH CENTRAL SOUTH DAKOTA

CITY           SKY/WX    TMP DP  RH WIND       PRES   REMARKS
RAPID CTY ARPT CLEAR     33  14  45 E3        30.39S
PIERRE         CLEAR     26  19  74 E6        30.46R WCI  19
CUSTER         CLEAR     28  12  51 SW7       30.35R WCI  21
ELLSWORTH AFB  CLEAR     35  13  40 SE9       30.38S WCI  28
PHILIP         CLEAR     29  18  63 E6        30.43S WCI  23
PINE RIDGE     CLEAR     27  11  51 E7        30.41S WCI  19
WINNER         FAIR      33  20  58 NE5       30.47R WCI  29
$$

SDZ004>011-016>023-039-040-300200-
NORTHEAST SOUTH DAKOTA

CITY           SKY/WX    TMP DP  RH WIND       PRES   REMARKS
ABERDEEN       CLOUDY    23  16  74 N9        30.53R WCI  13
WATERTOWN      CLOUDY    20  14  77 N13       30.48R WCI   7
SISSETON         N/A     18  11  74 N14       30.53R WCI   4
$$

SDZ017-020-022-023-036>040-048>070-300200-
SOUTHEAST SOUTH DAKOTA

CITY           SKY/WX    TMP DP  RH WIND       PRES   REMARKS
SIOUX FALLS    CLOUDY    25  18  74 N12       30.50R WCI  14
HURON          CLOUDY    26  19  74 NE9       30.52R WCI  17
CHAMBERLAIN    CLEAR     28  21  75 NE3       30.49R
MITCHELL       CLEAR     25  19  78 NE5       30.53R WCI  19
YANKTON        CLEAR     27  19  74 N8        30.52R WCI  18
$$

ABBREVIATIONS USED IN REMARKS
   TC - TEMPERATURE IN CELSIUS
  WCI - WIND CHILL INDEX
   HX - HEAT INDEX
  VSB - VISIBILITY



USA.gov is the U.S. government's official web portal to all federal, state and local government web resources and services.